Powrót do katalogu

FENGYUN 1C DEB

AktywnySSO
NORAD 29806·DEBRIS·🇨🇳 China

Wystrzelony May 10, 1999 z Taiyuan Satellite Launch Center

Loading…

Następne Przeloty (najbliższe 24 godziny)

TLE

ŚwieżeSource: Space-Track

Epoka: Sep 14, 2026, 06:22 UTC

1 29806U 99025CY  26257.26530387  .00000550  00000-0  31978-3 0  9997
2 29806  98.7030 270.2053 0028308 186.2980 233.6110 14.12465436 10247

Śledź FENGYUN 1C DEB w czasie rzeczywistym z AllMySat

Download on the App Store